| time (UTC) | temp C | wind direction | speed KPH | gust KPH | rain 1hr cm | rain 24hr cm | rain mn cm | humidity % | barometer mb |
| 20260507192817 | 16 | 58 | 3.2 | 4.8 | 0.00 | 0.10 | 0.03 | 65 | 1014.7 |
| 20260507192316 | 16 | 58 | 3.2 | 12.9 | 0.00 | 0.10 | 0.03 | 65 | 1014.5 |
| 20260507191834 | 16 | 58 | 6.4 | 14.5 | 0.00 | 0.10 | 0.03 | 65 | 1014.5 |
| 20260507191331 | 16 | 5 | 9.7 | 17.7 | 0.00 | 0.10 | 0.03 | 64 | 1014.5 |
| 20260507190828 | 16 | 336 | 12.9 | 19.3 | 0.00 | 0.10 | 0.03 | 65 | 1014.4 |
| 20260507190354 | 16 | 336 | 12.9 | 20.9 | 0.00 | 0.10 | 0.03 | 65 | 1014.4 |
| 20260507185852 | 16 | 339 | 14.5 | 20.9 | 0.00 | 0.20 | 0.03 | 65 | 1014.3 |
| 20260507185329 | 16 | 338 | 14.5 | 20.9 | 0.00 | 0.20 | 0.03 | 66 | 1014.3 |
| 20260507184827 | 16 | 5 | 11.3 | 20.9 | 0.00 | 0.20 | 0.03 | 66 | 1014.3 |
| 20260507184323 | 16 | 344 | 16.1 | 22.5 | 0.00 | 0.20 | 0.03 | 66 | 1014.2 |
| 20260507183820 | 16 | 336 | 11.3 | 22.5 | 0.00 | 0.20 | 0.03 | 67 | 1014.1 |
| 20260507183318 | 16 | 331 | 9.7 | 19.3 | 0.00 | 0.20 | 0.03 | 67 | 1014.1 |
| 20260507182823 | 16 | 32 | 11.3 | 16.1 | 0.00 | 0.20 | 0.03 | 68 | 1014.1 |
| 20260507182321 | 16 | 347 | 8.0 | 24.1 | 0.00 | 0.20 | 0.03 | 68 | 1014.0 |
| 20260507181819 | 16 | 306 | 9.7 | 25.7 | 0.00 | 0.20 | 0.03 | 68 | 1014.1 |
| 20260507181317 | 16 | 321 | 12.9 | 24.1 | 0.00 | 0.20 | 0.03 | 68 | 1013.9 |
| 20260507180835 | 16 | 23 | 19.3 | 24.1 | 0.00 | 0.20 | 0.03 | 68 | 1013.9 |
| 20260507180333 | 16 | 336 | 14.5 | 24.1 | 0.00 | 0.20 | 0.03 | 68 | 1013.7 |
| 20260507175830 | 16 | 308 | 16.1 | 22.5 | 0.00 | 7.01 | 0.03 | 68 | 1013.6 |
| 20260507175344 | 16 | 344 | 16.1 | 20.9 | 0.00 | 7.01 | 0.03 | 68 | 1013.6 |
| 20260507174821 | 16 | 311 | 12.9 | 19.3 | 0.00 | 7.01 | 0.03 | 69 | 1013.5 |
| 20260507174320 | 16 | 310 | 16.1 | 24.1 | 0.00 | 7.01 | 0.03 | 69 | 1013.4 |
| 20260507173818 | 16 | 27 | 16.1 | 20.9 | 0.00 | 7.01 | 0.03 | 70 | 1013.4 |
| 20260507173316 | 16 | 317 | 14.5 | 20.9 | 0.00 | 7.01 | 0.03 | 71 | 1013.5 |
| 20260507172816 | 16 | 329 | 9.7 | 16.1 | 0.00 | 7.01 | 0.03 | 72 | 1013.4 |
| 20260507172335 | 16 | 298 | 8.0 | 16.1 | 0.00 | 7.01 | 0.03 | 72 | 1013.4 |
| 20260507171833 | 16 | 276 | 11.3 | 16.1 | 0.00 | 7.01 | 0.03 | 72 | 1013.4 |
| 20260507171327 | 17 | 304 | 9.7 | 12.9 | 0.00 | 7.01 | 0.03 | 70 | 1013.4 |
| 20260507170826 | 17 | 320 | 6.4 | 8.0 | 0.00 | 7.01 | 0.03 | 70 | 1013.3 |
| 20260507170325 | 17 | 319 | 6.4 | 9.7 | 0.00 | 7.01 | 0.03 | 70 | 1013.2 |
| 20260507165824 | 17 | 322 | 8.0 | 9.7 | 0.00 | 7.01 | 0.03 | 71 | 1013.2 |
| 20260507165344 | 17 | 297 | 4.8 | 8.0 | 0.00 | 7.01 | 0.03 | 72 | 1013.2 |
| 20260507164818 | 17 | 286 | 3.2 | 11.3 | 0.00 | 7.01 | 0.03 | 72 | 1013.2 |
| 20260507164336 | 17 | 293 | 6.4 | 12.9 | 0.00 | 7.01 | 0.03 | 71 | 1013.2 |
| 20260507163854 | 17 | 297 | 8.0 | 12.9 | 0.00 | 7.01 | 0.03 | 71 | 1013.2 |
| 20260507163330 | 17 | 254 | 9.7 | 12.9 | 0.00 | 7.01 | 0.03 | 69 | 1013.1 |
| 20260507162828 | 17 | 296 | 3.2 | 6.4 | 0.00 | 7.01 | 0.03 | 67 | 1013.1 |
| 20260507162346 | 17 | 331 | 3.2 | 6.4 | 0.00 | 7.01 | 0.03 | 67 | 1013.1 |
| 20260507161824 | 17 | 318 | 4.8 | 6.4 | 0.00 | 7.01 | 0.03 | 66 | 1013.2 |
| 20260507161322 | 17 | 294 | 4.8 | 8.0 | 0.00 | 7.01 | 0.03 | 65 | 1013.2 |
| 20260507160842 | 17 | 298 | 6.4 | 8.0 | 0.00 | 7.01 | 0.03 | 64 | 1013.2 |
| 20260507160352 | 17 | 231 | 1.6 | 3.2 | 0.00 | 7.01 | 0.03 | 65 | 1013.2 |
| 20260507155850 | 17 | 232 | 3.2 | 4.8 | 0.00 | 7.01 | 0.03 | 64 | 1013.1 |
| 20260507155328 | 18 | 232 | 1.6 | 6.4 | 0.00 | 7.01 | 0.03 | 62 | 1013.1 |
| 20260507154826 | 18 | 232 | 1.6 | 6.4 | 0.00 | 7.01 | 0.03 | 63 | 1013.1 |
| 20260507154324 | 18 | 195 | 1.6 | 4.8 | 0.00 | 7.01 | 0.03 | 62 | 1013.0 |
| 20260507153820 | 18 | 195 | 1.6 | 8.0 | 0.00 | 7.01 | 0.03 | 61 | 1013.2 |
| 20260507153318 | 18 | 168 | 4.8 | 8.0 | 0.00 | 7.01 | 0.03 | 61 | 1013.0 |
| 20260507152816 | 18 | 168 | 1.6 | 8.0 | 0.00 | 7.01 | 0.03 | 61 | 1013.0 |
| 20260507152335 | 18 | 170 | 3.2 | 8.0 | 0.00 | 7.01 | 0.03 | 61 | 1013.1 |
| 20260507151833 | 18 | 169 | 4.8 | 8.0 | 0.00 | 7.01 | 0.03 | 61 | 1013.0 |
| 20260507151331 | 18 | 221 | 0.0 | 1.6 | 0.00 | 7.01 | 0.03 | 62 | 1013.0 |
| 20260507150830 | 18 | 160 | 0.0 | 0.0 | 0.00 | 7.01 | 0.03 | 63 | 1013.1 |
| 20260507150331 | 18 | 160 | 0.0 | 0.0 | 0.00 | 7.01 | 0.03 | 63 | 1013.1 |
| 20260507145828 | 18 | 160 | 0.0 | 3.2 | 0.00 | 7.01 | 0.03 | 64 | 1013.1 |
| 20260507145325 | 18 | 133 | 1.6 | 4.8 | 0.00 | 7.01 | 0.03 | 65 | 1013.1 |
| 20260507144837 | 17 | 133 | 1.6 | 8.0 | 0.00 | 7.01 | 0.03 | 63 | 1013.1 |
| 20260507144334 | 18 | 132 | 4.8 | 8.0 | 0.00 | 7.01 | 0.03 | 64 | 1013.0 |
| 20260507143854 | 18 | 136 | 0.0 | 9.7 | 0.00 | 7.01 | 0.03 | 64 | 1013.1 |
| 20260507143330 | 18 | 143 | 4.8 | 9.7 | 0.00 | 7.01 | 0.03 | 65 | 1013.2 |
| 20260507142829 | 18 | 190 | 4.8 | 8.0 | 0.00 | 7.01 | 0.03 | 64 | 1013.1 |
| 20260507142326 | 18 | 161 | 4.8 | 6.4 | 0.00 | 7.01 | 0.03 | 64 | 1013.1 |
| 20260507141822 | 17 | 52 | 1.6 | 4.8 | 0.00 | 7.01 | 0.03 | 65 | 1013.1 |
| 20260507141320 | 17 | 53 | 0.0 | 9.7 | 0.00 | 7.01 | 0.03 | 66 | 1013.2 |
| 20260507140818 | 17 | 53 | 4.8 | 9.7 | 0.00 | 7.01 | 0.03 | 65 | 1013.2 |
| 20260507140317 | 17 | 52 | 3.2 | 8.0 | 0.00 | 7.01 | 0.03 | 65 | 1013.3 |
| 20260507135835 | 17 | 51 | 4.8 | 8.0 | 0.00 | 7.01 | 0.03 | 64 | 1013.3 |
| 20260507135353 | 17 | 59 | 1.6 | 9.7 | 0.00 | 7.01 | 0.03 | 65 | 1013.3 |
| 20260507134830 | 17 | 20 | 4.8 | 9.7 | 0.00 | 7.01 | 0.03 | 62 | 1013.3 |
| 20260507134326 | 17 | 34 | 6.4 | 9.7 | 0.00 | 7.01 | 0.03 | 63 | 1013.3 |
| 20260507133845 | 17 | 324 | 4.8 | 12.9 | 0.00 | 7.01 | 0.03 | 66 | 1013.4 |
| 20260507133322 | 17 | 355 | 6.4 | 12.9 | 0.00 | 7.01 | 0.03 | 67 | 1013.4 |
| 20260507132820 | 17 | 340 | 6.4 | 12.9 | 0.00 | 7.01 | 0.03 | 66 | 1013.5 |
| 20260507132319 | 17 | 350 | 6.4 | 12.9 | 0.00 | 7.01 | 0.03 | 65 | 1013.5 |
| 20260507131817 | 17 | 333 | 3.2 | 8.0 | 0.00 | 7.01 | 0.03 | 65 | 1013.5 |
| 20260507131316 | 17 | 154 | 0.0 | 8.0 | 0.00 | 7.01 | 0.03 | 66 | 1013.6 |
| 20260507130833 | 17 | 49 | 1.6 | 8.0 | 0.00 | 7.01 | 0.03 | 68 | 1013.5 |
| 20260507130352 | 17 | 133 | 3.2 | 6.4 | 0.00 | 7.01 | 0.03 | 70 | 1013.5 |
| 20260507125828 | 17 | 138 | 1.6 | 11.3 | 0.00 | 7.01 | 0.03 | 70 | 1013.5 |
| 20260507125325 | 17 | 112 | 4.8 | 12.9 | 0.00 | 7.01 | 0.03 | 70 | 1013.4 |
| 20260507124824 | 17 | 118 | 6.4 | 16.1 | 0.00 | 7.01 | 0.03 | 70 | 1013.4 |
| 20260507124320 | 16 | 153 | 9.7 | 16.1 | 0.00 | 7.01 | 0.03 | 70 | 1013.4 |
| 20260507123819 | 16 | 134 | 6.4 | 17.7 | 0.00 | 7.01 | 0.03 | 70 | 1013.4 |
| 20260507123317 | 17 | 181 | 11.3 | 17.7 | 0.00 | 7.01 | 0.03 | 70 | 1013.5 |
| 20260507122835 | 17 | 146 | 8.0 | 16.1 | 0.00 | 7.01 | 0.03 | 72 | 1013.4 |
| 20260507122331 | 17 | 136 | 11.3 | 16.1 | 0.00 | 7.01 | 0.03 | 72 | 1013.6 |
| 20260507121828 | 17 | 152 | 8.0 | 17.7 | 0.00 | 7.01 | 0.03 | 71 | 1013.5 |
| 20260507121325 | 17 | 137 | 9.7 | 14.5 | 0.00 | 7.01 | 0.03 | 70 | 1013.6 |
| 20260507120824 | 16 | 146 | 4.8 | 14.5 | 0.00 | 7.01 | 0.03 | 73 | 1013.7 |
| 20260507120342 | 16 | 178 | 9.7 | 16.1 | 0.00 | 7.49 | 0.03 | 71 | 1013.7 |
| 20260507115819 | 16 | 159 | 8.0 | 16.1 | 0.00 | 7.49 | 0.03 | 73 | 1013.7 |
| 20260507115315 | 16 | 150 | 11.3 | 17.7 | 0.00 | 7.49 | 0.03 | 70 | 1013.7 |
| 20260507114833 | 16 | 144 | 8.0 | 17.7 | 0.00 | 7.49 | 0.03 | 72 | 1013.8 |
| 20260507114331 | 16 | 161 | 9.7 | 16.1 | 0.00 | 7.49 | 0.03 | 72 | 1013.7 |
| 20260507113829 | 16 | 153 | 11.3 | 16.1 | 0.00 | 7.49 | 0.03 | 69 | 1013.7 |
| 20260507113328 | 16 | 128 | 8.0 | 17.7 | 0.00 | 7.49 | 0.03 | 72 | 1013.7 |
| 20260507112846 | 16 | 165 | 9.7 | 16.1 | 0.00 | 7.49 | 0.03 | 70 | 1013.8 |
| 20260507112321 | 16 | 159 | 11.3 | 17.7 | 0.00 | 7.49 | 0.03 | 70 | 1013.8 |
| 20260507111819 | 17 | 152 | 9.7 | 17.7 | 0.00 | 7.49 | 0.03 | 70 | 1013.8 |
| 20260507111317 | 16 | 154 | 9.7 | 16.1 | 0.00 | 7.49 | 0.03 | 71 | 1013.9 |
| 20260507110815 | 16 | 129 | 8.0 | 16.1 | 0.00 | 7.49 | 0.03 | 71 | 1013.9 |
| 20260507110328 | 16 | 144 | 8.0 | 16.1 | 0.00 | 7.49 | 0.03 | 71 | 1014.1 |
| 20260507105825 | 16 | 149 | 9.7 | 14.5 | 0.00 | 10.31 | 0.03 | 71 | 1014.1 |
| 20260507105325 | 16 | 163 | 9.7 | 14.5 | 0.00 | 10.31 | 0.03 | 73 | 1014.2 |
| 20260507104823 | 15 | 178 | 6.4 | 12.9 | 0.00 | 10.31 | 0.03 | 72 | 1014.1 |
| 20260507104321 | 16 | 175 | 8.0 | 17.7 | 0.00 | 10.31 | 0.03 | 72 | 1014.2 |
| 20260507103818 | 16 | 138 | 9.7 | 16.1 | 0.00 | 10.31 | 0.03 | 71 | 1014.3 |
| 20260507103315 | 16 | 140 | 11.3 | 16.1 | 0.00 | 10.31 | 0.03 | 71 | 1014.3 |
| 20260507102831 | 15 | 153 | 8.0 | 12.9 | 0.00 | 10.31 | 0.03 | 72 | 1014.3 |
| 20260507102329 | 15 | 158 | 8.0 | 9.7 | 0.00 | 10.31 | 0.03 | 71 | 1014.2 |
| 20260507101826 | 15 | 150 | 6.4 | 16.1 | 0.00 | 10.31 | 0.03 | 71 | 1014.4 |
| 20260507101345 | 15 | 150 | 9.7 | 16.1 | 0.00 | 10.31 | 0.03 | 70 | 1014.3 |
| 20260507100821 | 15 | 147 | 6.4 | 12.9 | 0.00 | 10.31 | 0.03 | 69 | 1014.3 |
| 20260507100319 | 15 | 158 | 9.7 | 12.9 | 0.00 | 10.90 | 0.03 | 70 | 1014.3 |
| 20260507095836 | 15 | 152 | 6.4 | 11.3 | 0.00 | 10.90 | 0.03 | 70 | 1014.3 |
| 20260507095331 | 15 | 166 | 4.8 | 8.0 | 0.00 | 10.90 | 0.03 | 70 | 1014.3 |
| 20260507094849 | 15 | 140 | 3.2 | 4.8 | 0.00 | 10.90 | 0.03 | 72 | 1014.4 |
| 20260507094326 | 15 | 182 | 3.2 | 6.4 | 0.00 | 10.90 | 0.03 | 71 | 1014.3 |
| 20260507093843 | 15 | 184 | 1.6 | 11.3 | 0.00 | 10.90 | 0.03 | 72 | 1014.4 |
| 20260507093321 | 15 | 139 | 3.2 | 11.3 | 0.00 | 10.90 | 0.03 | 72 | 1014.4 |
| 20260507092819 | 15 | 172 | 1.6 | 9.7 | 0.00 | 10.90 | 0.03 | 72 | 1014.4 |
| 20260507092314 | 15 | 175 | 6.4 | 12.9 | 0.00 | 10.90 | 0.03 | 70 | 1014.4 |
| 20260507091815 | 15 | 156 | 6.4 | 16.1 | 0.00 | 10.90 | 0.03 | 72 | 1014.3 |
| 20260507091330 | 15 | 140 | 9.7 | 14.5 | 0.00 | 10.90 | 0.03 | 72 | 1014.3 |
| 20260507090829 | 15 | 115 | 9.7 | 12.9 | 0.00 | 10.90 | 0.03 | 71 | 1014.3 |
| 20260507090326 | 15 | 150 | 4.8 | 8.0 | 0.00 | 10.90 | 0.03 | 73 | 1014.4 |
| 20260507085824 | 14 | 184 | 1.6 | 4.8 | 0.00 | 11.10 | 0.03 | 76 | 1014.4 |
| 20260507085322 | 13 | 185 | 3.2 | 8.0 | 0.00 | 11.10 | 0.03 | 77 | 1014.4 |
| 20260507084819 | 13 | 185 | 4.8 | 8.0 | 0.00 | 11.10 | 0.03 | 76 | 1014.4 |
| 20260507084319 | 14 | 181 | 6.4 | 8.0 | 0.00 | 11.10 | 0.03 | 75 | 1014.4 |
| 20260507083837 | 13 | 129 | 3.2 | 11.3 | 0.00 | 11.10 | 0.03 | 76 | 1014.4 |
| 20260507083334 | 14 | 116 | 6.4 | 11.3 | 0.00 | 11.10 | 0.03 | 76 | 1014.4 |
| 20260507082832 | 14 | 114 | 8.0 | 14.5 | 0.00 | 11.10 | 0.03 | 76 | 1014.3 |
| 20260507082330 | 14 | 137 | 3.2 | 11.3 | 0.00 | 11.10 | 0.03 | 77 | 1014.3 |
| 20260507081828 | 14 | 195 | 1.6 | 8.0 | 0.00 | 11.10 | 0.03 | 77 | 1014.2 |
| 20260507081324 | 14 | 210 | 4.8 | 11.3 | 0.00 | 11.10 | 0.03 | 78 | 1014.2 |
| 20260507080821 | 13 | 135 | 6.4 | 11.3 | 0.00 | 11.10 | 0.03 | 80 | 1014.3 |
| 20260507080339 | 13 | 140 | 6.4 | 11.3 | 0.00 | 11.10 | 0.03 | 80 | 1014.2 |
| 20260507075853 | 13 | 69 | 4.8 | 8.0 | 0.00 | 11.40 | 0.03 | 81 | 1014.0 |
| 20260507075350 | 13 | 69 | 3.2 | 6.4 | 0.00 | 11.40 | 0.03 | 81 | 1014.2 |
| 20260507074827 | 13 | 68 | 4.8 | 6.4 | 0.00 | 11.40 | 0.03 | 82 | 1014.2 |
| 20260507074324 | 13 | 68 | 0.0 | 8.0 | 0.00 | 11.40 | 0.03 | 82 | 1014.2 |
| 20260507073841 | 13 | 68 | 4.8 | 9.7 | 0.00 | 11.40 | 0.03 | 83 | 1014.1 |
| 20260507073341 | 12 | 68 | 6.4 | 9.7 | 0.00 | 11.40 | 0.03 | 82 | 1014.1 |
| 20260507072816 | 12 | 68 | 4.8 | 9.7 | 0.00 | 11.40 | 0.03 | 82 | 1014.0 |
| 20260507072315 | 13 | 70 | 4.8 | 8.0 | 0.00 | 11.40 | 0.03 | 82 | 1014.0 |
| 20260507071833 | 12 | 59 | 3.2 | 6.4 | 0.00 | 11.40 | 0.03 | 83 | 1014.1 |
| 20260507071330 | 12 | 59 | 1.6 | 9.7 | 0.00 | 11.40 | 0.03 | 83 | 1014.1 |
| 20260507070829 | 12 | 59 | 6.4 | 9.7 | 0.00 | 11.40 | 0.03 | 84 | 1013.9 |
| 20260507070328 | 12 | 62 | 6.4 | 9.7 | 0.00 | 11.40 | 0.03 | 84 | 1013.9 |
| 20260507065823 | 12 | 67 | 3.2 | 11.3 | 0.00 | 11.71 | 0.03 | 84 | 1013.9 |
| 20260507065319 | 12 | 110 | 4.8 | 11.3 | 0.00 | 11.71 | 0.03 | 83 | 1014.0 |
| 20260507064817 | 12 | 221 | 1.6 | 11.3 | 0.00 | 11.71 | 0.03 | 82 | 1013.9 |
| 20260507064315 | 12 | 157 | 3.2 | 12.9 | 0.00 | 11.71 | 0.03 | 83 | 1013.7 |
| 20260507063814 | 12 | 147 | 8.0 | 12.9 | 0.00 | 11.71 | 0.03 | 83 | 1013.8 |
| 20260507063331 | 12 | 119 | 8.0 | 12.9 | 0.00 | 11.71 | 0.03 | 83 | 1013.7 |
| 20260507062829 | 12 | 131 | 8.0 | 12.9 | 0.00 | 11.71 | 0.03 | 83 | 1013.7 |
| 20260507062327 | 12 | 110 | 4.8 | 11.3 | 0.00 | 11.71 | 0.03 | 83 | 1013.7 |
| 20260507061846 | 12 | 113 | 4.8 | 6.4 | 0.00 | 11.71 | 0.03 | 84 | 1013.8 |
| 20260507061322 | 12 | 123 | 3.2 | 4.8 | 0.00 | 11.71 | 0.03 | 84 | 1013.7 |
| 20260507060820 | 12 | 232 | 1.6 | 3.2 | 0.00 | 11.71 | 0.03 | 83 | 1013.8 |
| 20260507060315 | 12 | 232 | 0.0 | 6.4 | 0.00 | 12.29 | 0.03 | 83 | 1013.7 |
| 20260507055832 | 11 | 232 | 3.2 | 8.0 | 0.00 | 12.29 | 0.03 | 83 | 1013.7 |
| 20260507055331 | 11 | 232 | 6.4 | 14.5 | 0.00 | 12.29 | 0.03 | 83 | 1013.8 |
| 20260507054827 | 11 | 19 | 4.8 | 17.7 | 0.00 | 12.29 | 0.03 | 82 | 1013.7 |
| 20260507054447 | 11 | 24 | 12.9 | 20.9 | 0.00 | 12.29 | 0.03 | 82 | 1013.6 |
| 20260507053829 | 11 | 360 | 12.9 | 20.9 | 0.00 | 12.29 | 0.03 | 83 | 1013.5 |
| 20260507053349 | 11 | 298 | 12.9 | 19.3 | 0.00 | 12.29 | 0.03 | 82 | 1013.5 |
| 20260507052825 | 11 | 355 | 14.5 | 20.9 | 0.00 | 12.29 | 0.03 | 81 | 1013.4 |
| 20260507052322 | 11 | 320 | 12.9 | 24.1 | 0.00 | 12.29 | 0.03 | 81 | 1013.5 |
| 20260507051839 | 11 | 314 | 16.1 | 24.1 | 0.00 | 12.29 | 0.03 | 82 | 1013.4 |
| 20260507051359 | 11 | 316 | 8.0 | 16.1 | 0.00 | 12.29 | 0.03 | 82 | 1013.4 |
| 20260507050817 | 11 | 344 | 9.7 | 17.7 | 0.00 | 12.29 | 0.03 | 82 | 1013.4 |
| 20260507050316 | 11 | 46 | 12.9 | 17.7 | 0.00 | 13.11 | 0.03 | 82 | 1013.3 |
| 20260507045842 | 11 | 18 | 8.0 | 19.3 | 0.00 | 13.11 | 0.03 | 82 | 1013.2 |
| 20260507045336 | 12 | 355 | 14.5 | 19.3 | 0.00 | 13.11 | 0.03 | 81 | 1013.2 |
| 20260507044853 | 12 | 19 | 8.0 | 22.5 | 0.00 | 13.11 | 0.03 | 81 | 1013.2 |
| 20260507044330 | 12 | 297 | 12.9 | 24.1 | 0.00 | 13.11 | 0.03 | 80 | 1013.1 |
| 20260507043828 | 11 | 292 | 12.9 | 27.4 | 0.00 | 13.11 | 0.03 | 80 | 1013.0 |
| 20260507043348 | 11 | 280 | 11.3 | 22.5 | 0.00 | 13.11 | 0.03 | 83 | 1013.0 |
| 20260507042828 | 11 | 286 | 12.9 | 19.3 | 0.00 | 13.11 | 0.03 | 84 | 1013.0 |
| 20260507042327 | 11 | 19 | 8.0 | 14.5 | 0.00 | 13.11 | 0.03 | 86 | 1013.0 |
| 20260507041842 | 11 | 308 | 6.4 | 17.7 | 0.00 | 13.11 | 0.03 | 86 | 1013.0 |
| 20260507041338 | 11 | 302 | 6.4 | 19.3 | 0.00 | 13.11 | 0.03 | 85 | 1012.9 |
| 20260507040857 | 11 | 16 | 9.7 | 19.3 | 0.00 | 13.11 | 0.03 | 85 | 1013.0 |
| 20260507040337 | 11 | 9 | 6.4 | 16.1 | 0.00 | 13.11 | 0.03 | 86 | 1012.8 |
| 20260507035814 | 11 | 44 | 4.8 | 9.7 | 0.00 | 13.11 | 0.03 | 86 | 1012.8 |
| 20260507035333 | 11 | 43 | 1.6 | 4.8 | 0.00 | 13.11 | 0.03 | 87 | 1012.9 |
| 20260507034831 | 11 | 43 | 3.2 | 6.4 | 0.00 | 13.11 | 0.03 | 87 | 1012.8 |
| 20260507034327 | 11 | 43 | 4.8 | 6.4 | 0.00 | 13.11 | 0.03 | 87 | 1012.8 |
| 20260507033827 | 11 | 17 | 0.0 | 0.0 | 0.00 | 13.11 | 0.03 | 86 | 1012.8 |
| 20260507033327 | 11 | 17 | 0.0 | 0.0 | 0.00 | 13.11 | 0.03 | 86 | 1012.9 |
| 20260507032826 | 11 | 17 | 0.0 | 12.9 | 0.00 | 13.11 | 0.03 | 85 | 1012.9 |
| 20260507032323 | 11 | 17 | 3.2 | 12.9 | 0.00 | 13.11 | 0.03 | 85 | 1012.8 |
| 20260507031820 | 11 | 20 | 4.8 | 9.7 | 0.00 | 13.11 | 0.03 | 85 | 1012.9 |
| 20260507031338 | 11 | 360 | 4.8 | 12.9 | 0.00 | 13.11 | 0.03 | 85 | 1012.8 |
| 20260507030839 | 11 | 304 | 6.4 | 12.9 | 0.00 | 13.11 | 0.03 | 86 | 1012.8 |
| 20260507030338 | 11 | 27 | 4.8 | 9.7 | 0.00 | 13.21 | 0.03 | 87 | 1012.8 |
| 20260507025817 | 10 | 32 | 6.4 | 9.7 | 0.00 | 13.21 | 0.03 | 88 | 1012.7 |
| 20260507025315 | 11 | 306 | 3.2 | 4.8 | 0.00 | 13.21 | 0.03 | 88 | 1012.9 |
| 20260507024832 | 11 | 306 | 3.2 | 4.8 | 0.00 | 13.21 | 0.03 | 88 | 1012.8 |
| 20260507024330 | 11 | 306 | 0.0 | 3.2 | 0.00 | 13.21 | 0.03 | 88 | 1012.7 |
| 20260507023829 | 11 | 306 | 0.0 | 3.2 | 0.00 | 13.21 | 0.03 | 87 | 1012.7 |
| 20260507023325 | 11 | 306 | 0.0 | 3.2 | 0.00 | 13.21 | 0.03 | 86 | 1012.5 |
| 20260507022824 | 11 | 306 | 0.0 | 6.4 | 0.00 | 13.21 | 0.03 | 86 | 1012.6 |
| 20260507022344 | 11 | 306 | 3.2 | 6.4 | 0.00 | 13.21 | 0.03 | 85 | 1012.6 |
| 20260507021821 | 11 | 329 | 3.2 | 8.0 | 0.00 | 13.21 | 0.03 | 84 | 1012.5 |
| 20260507021320 | 11 | 263 | 4.8 | 14.5 | 0.00 | 13.21 | 0.03 | 83 | 1012.5 |
| 20260507020818 | 11 | 329 | 4.8 | 22.5 | 0.00 | 13.21 | 0.03 | 83 | 1012.6 |
| 20260507020316 | 11 | 5 | 12.9 | 22.5 | 0.00 | 13.31 | 0.03 | 82 | 1012.4 |
| 20260507015814 | 11 | 294 | 9.7 | 27.4 | 0.00 | 13.31 | 0.03 | 83 | 1012.4 |
| 20260507015333 | 11 | 271 | 9.7 | 20.9 | 0.00 | 13.31 | 0.03 | 83 | 1012.4 |
| 20260507014824 | 11 | 327 | 8.0 | 14.5 | 0.00 | 13.31 | 0.03 | 84 | 1012.3 |
| 20260507014321 | 11 | 336 | 4.8 | 11.3 | 0.00 | 13.31 | 0.03 | 86 | 1012.4 |
| 20260507013821 | 11 | 313 | 6.4 | 9.7 | 0.00 | 13.31 | 0.03 | 87 | 1012.5 |
| 20260507013320 | 11 | 286 | 8.0 | 11.3 | 0.00 | 13.31 | 0.03 | 87 | 1012.5 |
| 20260507012817 | 11 | 260 | 9.7 | 11.3 | 0.00 | 13.31 | 0.03 | 88 | 1012.6 |
| 20260507012315 | 10 | 265 | 3.2 | 8.0 | 0.00 | 13.31 | 0.03 | 88 | 1012.5 |
| 20260507011833 | 10 | 252 | 4.8 | 9.7 | 0.00 | 13.31 | 0.03 | 88 | 1012.4 |
| 20260507011330 | 10 | 63 | 1.6 | 4.8 | 0.10 | 13.31 | 0.03 | 87 | 1012.5 |
| 20260507010848 | 11 | 277 | 0.0 | 11.3 | 0.10 | 13.31 | 0.03 | 87 | 1012.4 |
| 20260507010325 | 11 | 277 | 8.0 | 11.3 | 0.10 | 13.31 | 0.03 | 86 | 1012.5 |
| 20260507005823 | 11 | 292 | 6.4 | 8.0 | 0.10 | 13.41 | 0.03 | 85 | 1012.5 |
| 20260507005342 | 11 | 14 | 4.8 | 9.7 | 0.10 | 13.41 | 0.03 | 83 | 1012.6 |
| 20260507004839 | 11 | 300 | 4.8 | 16.1 | 0.10 | 13.41 | 0.03 | 83 | 1012.6 |
| 20260507004357 | 11 | 327 | 8.0 | 16.1 | 0.10 | 13.41 | 0.03 | 83 | 1012.5 |
| 20260507003855 | 11 | 337 | 6.4 | 20.9 | 0.10 | 13.41 | 0.03 | 84 | 1012.6 |
| 20260507003352 | 11 | 340 | 11.3 | 20.9 | 0.10 | 13.41 | 0.03 | 84 | 1012.6 |
| 20260507002829 | 11 | 328 | 9.7 | 17.7 | 0.10 | 13.41 | 0.03 | 85 | 1012.6 |
| 20260507002325 | 11 | 300 | 6.4 | 14.5 | 0.10 | 13.41 | 0.03 | 86 | 1012.8 |
| 20260507001824 | 11 | 313 | 1.6 | 6.4 | 0.10 | 13.41 | 0.03 | 87 | 1012.8 |
| 20260507001341 | 11 | 312 | 3.2 | 14.5 | 0.00 | 13.31 | 0.00 | 87 | 1012.8 |
| 20260507000819 | 11 | 26 | 3.2 | 9.7 | 0.00 | 13.31 | 0.00 | 87 | 1012.7 |
| 20260507000336 | 11 | 321 | 1.6 | 12.9 | 0.00 | 13.31 | 0.00 | 86 | 1012.8 |
| 20260506235837 | 11 | 303 | 4.8 | 12.9 | 0.00 | 13.31 | 0.00 | 86 | 1012.7 |
| 20260506235334 | 11 | 346 | 3.2 | 12.9 | 0.00 | 13.31 | 0.00 | 86 | 1012.7 |
| 20260506234832 | 11 | 265 | 9.7 | 19.3 | 0.00 | 13.31 | 0.00 | 86 | 1012.6 |
| 20260506234330 | 11 | 339 | 11.3 | 19.3 | 0.00 | 13.31 | 0.00 | 84 | 1012.6 |
| 20260506233827 | 11 | 285 | 11.3 | 22.5 | 0.00 | 13.31 | 0.00 | 83 | 1012.5 |
| 20260506233324 | 11 | 22 | 12.9 | 20.9 | 0.00 | 13.31 | 0.00 | 82 | 1012.6 |
| 20260506232822 | 11 | 335 | 11.3 | 20.9 | 0.00 | 13.31 | 0.00 | 82 | 1012.6 |
| 20260506232320 | 11 | 291 | 14.5 | 20.9 | 0.00 | 13.31 | 0.00 | 82 | 1012.6 |
| 20260506231820 | 11 | 245 | 11.3 | 25.7 | 0.00 | 13.31 | 0.00 | 82 | 1012.7 |
| 20260506231335 | 11 | 256 | 16.1 | 25.7 | 0.00 | 13.31 | 0.00 | 83 | 1012.7 |
| 20260506230832 | 11 | 288 | 9.7 | 24.1 | 0.00 | 13.31 | 0.00 | 84 | 1012.5 |
| 20260506230350 | 11 | 245 | 9.7 | 12.9 | 0.00 | 13.31 | 0.00 | 86 | 1012.5 |
| 20260506225827 | 11 | 209 | 6.4 | 8.0 | 0.00 | 13.79 | 0.00 | 85 | 1012.5 |
| 20260506225324 | 11 | 341 | 4.8 | 8.0 | 0.00 | 13.79 | 0.00 | 85 | 1012.5 |
| 20260506224823 | 11 | 267 | 1.6 | 12.9 | 0.00 | 13.79 | 0.00 | 85 | 1012.6 |
| 20260506224318 | 11 | 246 | 6.4 | 17.7 | 0.00 | 13.79 | 0.00 | 84 | 1012.6 |
| 20260506223837 | 11 | 269 | 12.9 | 20.9 | 0.00 | 13.79 | 0.00 | 83 | 1012.5 |
| 20260506223315 | 11 | 319 | 12.9 | 29.0 | 0.00 | 13.79 | 0.00 | 82 | 1012.4 |
| 20260506222833 | 11 | 305 | 11.3 | 29.0 | 0.00 | 13.79 | 0.00 | 81 | 1012.5 |
| 20260506222330 | 11 | 326 | 16.1 | 29.0 | 0.00 | 13.79 | 0.00 | 80 | 1012.6 |
| 20260506221827 | 11 | 312 | 14.5 | 22.5 | 0.00 | 13.79 | 0.00 | 81 | 1012.7 |
| 20260506221322 | 11 | 5 | 9.7 | 19.3 | 0.00 | 13.79 | 0.00 | 83 | 1012.8 |
| 20260506220840 | 11 | 32 | 12.9 | 17.7 | 0.00 | 13.79 | 0.00 | 84 | 1012.7 |
| 20260506220337 | 11 | 313 | 8.0 | 22.5 | 0.00 | 13.79 | 0.00 | 83 | 1012.7 |
| 20260506215826 | 11 | 29 | 12.9 | 22.5 | 0.00 | 14.10 | 3.51 | 83 | 1012.7 |
| 20260506215343 | 11 | 13 | 14.5 | 19.3 | 0.00 | 14.10 | 3.51 | 82 | 1012.8 |
| 20260506214820 | 11 | 330 | 6.4 | 17.7 | 0.00 | 14.10 | 3.51 | 81 | 1012.8 |
| 20260506214318 | 11 | 327 | 11.3 | 24.1 | 0.00 | 14.10 | 3.51 | 80 | 1012.7 |
| 20260506213844 | 12 | 349 | 6.4 | 24.1 | 0.00 | 14.10 | 3.51 | 80 | 1012.6 |
| 20260506213321 | 12 | 303 | 9.7 | 22.5 | 0.00 | 14.10 | 3.51 | 80 | 1012.7 |
| 20260506212820 | 12 | 334 | 11.3 | 20.9 | 0.00 | 14.10 | 3.51 | 79 | 1012.6 |
| 20260506212319 | 12 | 19 | 11.3 | 17.7 | 0.00 | 14.10 | 3.51 | 79 | 1012.7 |
| 20260506211819 | 12 | 19 | 8.0 | 19.3 | 0.00 | 14.10 | 3.51 | 79 | 1012.7 |
| 20260506211336 | 12 | 5 | 9.7 | 19.3 | 0.00 | 14.10 | 3.51 | 78 | 1012.7 |
| 20260506210853 | 12 | 318 | 8.0 | 17.7 | 0.00 | 14.10 | 3.51 | 78 | 1012.6 |
| 20260506210351 | 12 | 350 | 8.0 | 20.9 | 0.00 | 14.10 | 3.51 | 79 | 1012.5 |
| 20260506205828 | 12 | 355 | 9.7 | 20.9 | 0.00 | 14.10 | 3.51 | 82 | 1012.7 |
| 20260506205325 | 11 | 351 | 3.2 | 17.7 | 0.00 | 14.10 | 3.51 | 83 | 1012.4 |
| 20260506204823 | 12 | 9 | 8.0 | 20.9 | 0.00 | 14.10 | 3.51 | 83 | 1012.6 |
| 20260506204347 | 12 | 269 | 16.1 | 22.5 | 0.00 | 14.10 | 3.51 | 83 | 1012.7 |
| 20260506203824 | 12 | 306 | 9.7 | 24.1 | 0.00 | 14.10 | 3.51 | 83 | 1012.6 |
| 20260506203321 | 11 | 281 | 14.5 | 24.1 | 0.00 | 14.10 | 3.51 | 84 | 1012.5 |
| 20260506202835 | 11 | 23 | 12.9 | 19.3 | 0.00 | 14.10 | 3.51 | 83 | 1012.5 |
| 20260506202350 | 11 | 355 | 8.0 | 17.7 | 0.00 | 14.10 | 3.51 | 81 | 1012.6 |
| 20260506201826 | 12 | 355 | 8.0 | 20.9 | 0.00 | 14.10 | 3.51 | 80 | 1012.5 |
| 20260506201324 | 12 | 304 | 12.9 | 19.3 | 0.00 | 14.10 | 3.51 | 79 | 1012.4 |
| 20260506200823 | 12 | 302 | 12.9 | 24.1 | 0.00 | 14.10 | 3.51 | 80 | 1012.4 |
| 20260506200320 | 12 | 286 | 9.7 | 30.6 | 0.00 | 14.10 | 3.51 | 83 | 1012.4 |
| 20260506195822 | 12 | 295 | 11.3 | 38.6 | 0.00 | 14.10 | 3.51 | 88 | 1012.3 |
| 20260506195319 | 12 | 265 | 24.1 | 38.6 | 0.00 | 14.10 | 3.51 | 89 | 1012.3 |
| 20260506194837 | 12 | 285 | 22.5 | 38.6 | 0.00 | 14.10 | 3.51 | 88 | 1012.0 |
| 20260506194340 | 11 | 290 | 20.9 | 38.6 | 0.00 | 14.10 | 3.51 | 87 | 1011.9 |
| 20260506193834 | 12 | 305 | 14.5 | 24.1 | 0.00 | 14.10 | 3.51 | 85 | 1011.6 |
| 20260506193334 | 12 | 262 | 11.3 | 22.5 | 0.00 | 14.10 | 3.51 | 84 | 1011.7 |